sat.trackr.live / text

‹ back to catalog

STARLINK-3868

NORAD 52649 · 2022-052BD

PAYLOAD ACTIVE UNKNOWN

§ Identity

Operator
Country
US
Launch date
2022-05-14
Launch site
AFETR
Launch vehicle
Mass (kg)
RCS (m²)

Purposes: comms

External: N2YO · Heavens-Above · Gunter

§ Orbital elements

Epoch: 2026-09-20T03:32:42.010080Z

Period
94.01 min
Inclination
53.1592°
Eccentricity
0.0001162
Mean motion
15.31711642 rev/d
Perigee alt
469.9 km
Apogee alt
471.5 km
Semi-major
6,848.8 km
B*
6.5301e-5
RAAN
92.4513°
Arg perigee
89.1164°
Mean anomaly
270.9971°
Rev number
24,068

§ Raw data

STARLINK-38681 52649U 22052BD  26263.14770845  .00001662  00000+0  65301-4 0  99952 52649  53.1592  92.4513 0001162  89.1164 270.9971 15.31711642240682

JSON: /api/v1/satellites/52649 · /tle

For live sub-satellite position, see the globe view (requires WebGL).

§ Visibility from observer

Set your observer location to see the next 7 days of passes ≥ 10°. The values pass through the URL so the page stays shareable.

No JS? Fill the form by hand. The geolocation button needs JavaScript.